Date String (YYYY-MM-DD hh:mm:ss) UTC,Instrument flags,absolute air pressure of the measurement (hPa),sample flow rate (lpm),inlet stack bypass flow (lpm),air temperature of the measurement (°C),ambient temperature measured by the external sensor (°C),aerosol sample conditioner tube jacket temperature (°C),OPC LED temperature (°C),internal box temperature (°C),relative humidity of the measurement (%),span deviation,mass concentration of particles derived from Lorenz-Mie calculation of OPC scattering (μg/m³),mass concentration of particles derived from Lorenz-Mie calculation of OPC scattering (μg/m³),mass concentration of particles derived from Lorenz-Mie calculation of OPC scattering (μg/m³)
DateTimeUTC,F1_M11,P_M11,Q1_M11,Q2_M11,T1_M11,T2_M11,T3_M11,T4_M11,T5_M11,U1_M11,ZSPAN_M11,X2_M11,X0_M11,X1_M11
2023-07-13 09:00:00,SystemResetWarning,0830.6,4.99,000.00,029.2,025.4,000.0,037.6,030.4,29.1,0000.0,0004.00,0008.64,0003.35
2023-07-13 09:01:00,SystemResetWarning,0830.6,4.99,000.00,029.1,025.8,000.0,037.6,030.4,29.2,0000.0,0004.02,0009.03,0003.34
2023-07-13 09:02:00,SystemResetWarning,0830.6,5.00,000.00,029.1,026.2,000.0,037.7,030.5,29.1,0000.0,0004.01,0009.37,0003.33
2023-07-13 09:03:00,SystemResetWarning,0830.6,5.01,000.00,029.1,026.6,000.0,037.7,030.6,29.1,0000.0,0003.96,0009.24,0003.33
2023-07-13 09:04:00,SystemResetWarning,0830.6,4.99,000.00,029.1,026.9,000.0,037.7,030.7,29.4,0000.0,0003.97,0009.11,0003.36
2023-07-13 09:05:00,SystemResetWarning,0830.7,4.99,000.00,029.2,027.2,000.0,037.7,030.7,29.6,0000.0,0004.00,0008.80,0003.38
2023-07-13 09:06:00,SystemResetWarning,0830.6,5.00,000.00,029.2,027.4,000.0,037.7,030.8,28.9,0000.0,0004.06,0008.93,0003.41
2023-07-13 09:07:00,SystemResetWarning,0830.6,5.00,000.00,029.2,027.6,000.0,037.7,030.8,28.4,0000.0,0004.12,0008.97,0003.44
2023-07-13 09:08:00,SystemResetWarning,0830.6,5.00,000.00,029.2,027.8,000.0,037.7,030.9,27.7,0000.0,0004.18,0008.92,0003.49
2023-07-13 09:09:00,SystemResetWarning,0830.6,5.01,000.00,029.3,027.9,000.0,037.7,030.9,27.4,0000.0,0004.22,0009.06,0003.55
2023-07-13 09:10:00,SystemResetWarning,0830.6,5.00,000.00,029.3,028.0,000.0,037.8,031.0,27.2,0000.0,0004.24,0009.23,0003.60
2023-07-13 09:11:00,SystemResetWarning,0830.6,5.00,000.00,029.3,028.1,000.0,037.8,031.0,26.5,0000.0,0004.29,0009.07,0003.64
2023-07-13 09:12:00,SystemResetWarning,0830.7,5.01,000.00,029.4,028.2,000.0,037.8,031.0,26.2,0000.0,0004.28,0009.26,0003.66
2023-07-13 09:13:00,SystemResetWarning,0830.5,5.00,000.00,029.4,028.3,000.0,037.8,031.1,25.6,0000.0,0004.25,0009.49,0003.66
2023-07-13 09:14:00,SystemResetWarning,0830.5,5.00,000.00,029.4,028.3,000.0,037.8,031.1,25.2,0000.0,0004.27,0009.57,0003.66
2023-07-13 09:15:00,SystemResetWarning,0830.4,4.98,000.00,029.5,027.9,000.0,037.8,031.1,24.8,0000.0,0004.26,0009.60,0003.65
2023-07-13 09:16:00,SystemResetWarning,0830.5,5.00,000.00,029.4,026.0,000.0,037.7,030.9,24.8,0000.0,0004.26,0009.63,0003.65
2023-07-13 09:17:00,SystemResetWarning,0830.4,5.01,000.00,029.3,025.2,000.0,037.6,030.6,25.2,0000.0,0004.25,0009.59,0003.65
2023-07-13 09:18:00,SystemResetWarning,0830.4,5.01,000.00,029.2,025.4,000.0,037.6,030.4,25.5,0000.0,0004.22,0009.43,0003.64
2023-07-13 09:19:00,SystemResetWarning,0830.4,5.00,000.00,029.2,025.7,000.0,037.6,030.4,25.9,0000.0,0004.20,0009.32,0003.61
2023-07-13 09:20:00,SystemResetWarning,0830.4,5.00,000.00,029.1,026.1,000.0,037.7,030.5,25.7,0000.0,0004.17,0009.69,0003.58
2023-07-13 09:21:00,SystemResetWarning,0830.4,5.00,000.00,029.1,026.5,000.0,037.7,030.6,25.6,0000.0,0004.10,0009.56,0003.55
2023-07-13 09:22:00,SystemResetWarning,0830.4,4.99,000.00,029.1,026.9,000.0,037.7,030.6,25.5,0000.0,0004.05,0009.40,0003.51
2023-07-13 09:23:00,SystemResetWarning,0830.5,5.00,000.00,029.2,027.1,000.0,037.7,030.7,25.6,0000.0,0004.01,0008.51,0003.49
2023-07-13 09:24:00,SystemResetWarning,0830.4,5.01,000.00,029.2,027.4,000.0,037.7,030.8,25.7,0000.0,0004.02,0007.78,0003.49
2023-07-13 09:25:00,SystemResetWarning,0830.4,5.00,000.00,029.2,027.6,000.0,037.7,030.8,25.7,0000.0,0004.06,0007.91,0003.50
2023-07-13 09:26:00,SystemResetWarning,0830.4,5.00,000.00,029.2,027.7,000.0,037.7,030.9,25.7,0000.0,0004.10,0008.59,0003.51
2023-07-13 09:27:00,SystemResetWarning,0830.4,5.00,000.00,029.3,027.9,000.0,037.7,030.9,25.3,0000.0,0004.07,0008.85,0003.51
2023-07-13 09:28:00,SystemResetWarning,0830.4,5.01,000.00,029.3,028.0,000.0,037.7,030.9,25.2,0000.0,0004.09,0008.92,0003.51
2023-07-13 09:29:00,SystemResetWarning,0830.4,5.00,000.00,029.3,028.1,000.0,037.8,031.0,25.1,0000.0,0004.09,0008.91,0003.50
2023-07-13 09:30:00,SystemResetWarning,0830.4,5.00,000.00,029.4,028.1,000.0,037.8,031.0,25.2,0000.0,0004.09,0008.92,0003.51
2023-07-13 09:31:00,SystemResetWarning,0830.4,4.99,000.00,029.4,028.2,000.0,037.8,031.0,25.2,0000.0,0004.06,0008.86,0003.51
2023-07-13 09:32:00,SystemResetWarning,0830.4,5.00,000.00,029.4,028.3,000.0,037.8,031.1,25.1,0000.0,0004.07,0008.67,0003.51
2023-07-13 09:33:00,SystemResetWarning,0830.4,5.00,000.00,029.5,028.3,000.0,037.8,031.1,25.1,0000.0,0004.10,0008.74,0003.52
2023-07-13 09:34:00,SystemResetWarning,0830.3,5.00,000.00,029.5,027.2,000.0,037.8,031.0,24.9,0000.0,0004.10,0008.92,0003.52
2023-07-13 09:35:00,SystemResetWarning,0830.3,5.00,000.00,029.4,025.5,000.0,037.7,030.8,24.9,0000.0,0004.11,0009.02,0003.52
2023-07-13 09:36:00,SystemResetWarning,0830.3,5.01,000.00,029.3,025.2,000.0,037.6,030.5,25.0,0000.0,0004.03,0008.78,0003.51
2023-07-13 09:37:00,SystemResetWarning,0830.3,5.01,000.00,029.2,025.4,000.0,037.6,030.4,25.3,0000.0,0003.97,0008.20,0003.49
2023-07-13 09:38:00,SystemResetWarning,0830.3,4.99,000.00,029.1,025.8,000.0,037.7,030.4,25.1,0000.0,0003.96,0007.70,0003.48
2023-07-13 09:39:00,SystemResetWarning,0830.3,5.00,000.00,029.1,026.2,000.0,037.7,030.5,25.0,0000.0,0003.93,0007.62,0003.45
2023-07-13 09:40:00,SystemResetWarning,0830.3,5.00,000.00,029.1,026.6,000.0,037.7,030.6,25.0,0000.0,0003.90,0007.58,0003.43
2023-07-13 09:41:00,SystemResetWarning,0830.3,5.00,000.00,029.1,026.9,000.0,037.7,030.6,25.0,0000.0,0003.90,0007.67,0003.41
2023-07-13 09:42:00,SystemResetWarning,0830.3,5.01,000.00,029.2,027.1,000.0,037.7,030.7,24.8,0000.0,0003.87,0007.52,0003.39
2023-07-13 09:43:00,SystemResetWarning,0830.3,4.99,000.00,029.2,027.4,000.0,037.7,030.7,24.7,0000.0,0003.86,0006.98,0003.37
2023-07-13 09:44:00,SystemResetWarning,0830.3,4.99,000.00,029.2,027.5,000.0,037.7,030.8,24.7,0000.0,0003.84,0007.78,0003.34
2023-07-13 09:45:00,SystemResetWarning,0830.3,4.99,000.00,029.2,027.7,000.0,037.7,030.8,24.6,0000.0,0003.81,0008.02,0003.33
2023-07-13 09:46:00,SystemResetWarning,0830.3,5.00,000.00,029.2,027.8,000.0,037.7,030.9,24.4,0000.0,0003.78,0007.86,0003.30
2023-07-13 09:47:00,SystemResetWarning,0830.4,5.00,000.00,029.3,027.9,000.0,037.7,030.9,24.2,0000.0,0003.78,0007.93,0003.29
2023-07-13 09:48:00,SystemResetWarning,0830.4,5.00,000.00,029.3,028.0,000.0,037.7,030.9,24.3,0000.0,0003.78,0007.92,0003.28
2023-07-13 09:49:00,SystemResetWarning,0830.4,5.00,000.00,029.3,028.1,000.0,037.8,031.0,24.5,0000.0,0003.75,0007.86,0003.27
2023-07-13 09:50:00,SystemResetWarning,0830.4,5.01,000.00,029.4,028.1,000.0,037.8,031.0,24.6,0000.0,0003.72,0007.76,0003.25
2023-07-13 09:51:00,SystemResetWarning,0830.4,5.00,000.00,029.4,028.2,000.0,037.8,031.0,24.6,0000.0,0003.70,0007.73,0003.25
2023-07-13 09:52:00,SystemResetWarning,0830.4,5.01,000.00,029.4,028.3,000.0,037.8,031.1,24.7,0000.0,0003.70,0007.77,0003.25
2023-07-13 09:53:00,SystemResetWarning,0830.4,5.00,000.00,029.5,028.3,000.0,037.8,031.1,24.2,0000.0,0003.68,0007.68,0003.25
2023-07-13 09:54:00,SystemResetWarning,0830.4,4.98,000.00,029.5,028.3,000.0,037.9,031.1,24.0,0000.0,0003.67,0007.69,0003.25
2023-07-13 09:55:00,SystemResetWarning,0830.4,5.01,000.00,029.5,028.4,000.0,037.9,031.1,24.0,0000.0,0003.65,0007.43,0003.24
2023-07-13 09:56:00,SystemResetWarning,0830.4,5.01,000.00,029.5,028.4,000.0,037.9,031.2,23.7,0000.0,0003.68,0007.23,0003.24
2023-07-13 09:57:00,SystemResetWarning,0830.4,4.98,000.00,029.6,028.4,000.0,037.9,031.2,23.7,0000.0,0003.67,0007.09,0003.24
2023-07-13 09:58:00,SystemResetWarning,0830.4,4.99,000.00,029.6,027.3,000.0,037.9,031.1,23.5,0000.0,0003.67,0007.02,0003.23
2023-07-13 09:59:00,SystemResetWarning,0830.4,5.01,000.00,029.5,025.6,000.0,037.8,030.8,23.6,0000.0,0003.68,0007.07,0003.24
